[[{"header":{"parameterUnit":"m.s-1","parameterCategory":1,"la1":30.2991,"la2":30.254,"lo1":-89.0895,"lo2":-89.0444,"dy":0.0017,"dx":0.0017,"nx":28,"ny":28,"refTime":"2023-07-30T03:00:00:Z","depth":0,"parameterNumber":2,"parameterNumberName":"U-component_of_WINDS"},"data":[0,0,0,0,0,0,0,0,0,0,0,0,0,0,0,0,0,0,0,0,0,0,0,0,0,0,0,0,0,0,0,0,0,0,0,0,0,0,0,0,0,0,0,0,0,0,0,0,0,0,0,0,0,0,0,0,0,0,1.8225,1.8226,0,1.8333,1.8334,1.8335,1.8363,1.8362,1.8361,1.8361,1.847,1.8474,1.8477,0,0,0,0,0,0,0,0,0,0,0,0,0,1.804,1.8044,1.8224,1.8226,1.8227,1.8333,1.8334,1.8336,1.8363,1.8362,1.8361,1.8361,1.8469,1.8474,1.8478,0,0,0,0,0,0,0,0,0,0,0,0,0,1.8132,1.8045,1.8224,1.8254,1.8257,1.8333,1.8334,1.8336,1.8363,1.8362,1.8361,1.836,1.8468,1.8473,1.8478,1.8532,0,0,1.8495,1.8497,0,0,0,0,0,0,0,0,1.8126,1.8138,1.8248,1.8252,1.8256,1.8333,1.831,1.8402,1.8363,1.8323,1.8361,1.836,1.8426,1.8434,1.8457,1.8537,1.8542,1.8495,1.8498,1.8501,1.8502,0,0,0,0,0,0,0,1.812,1.8134,1.8267,1.8249,1.8254,1.8261,1.8273,1.8327,1.8379,1.8326,1.8329,1.8341,1.8428,1.8452,1.846,1.8543,1.8495,1.85,1.8503,1.8505,1.8673,1.8675,0,0,0,0,0,0,1.8109,1.8128,1.8264,1.8271,1.8187,1.8265,1.8279,1.831,1.8378,1.8388,1.8342,1.8342,1.8443,1.8453,1.8464,1.8531,1.8501,1.8506,1.8509,1.8672,1.8674,1.8675,0,0,0,0,0,0,1.8105,1.8121,1.826,1.82,1.8218,1.827,1.8304,1.8312,1.8336,1.839,1.8399,1.8357,1.8443,1.8456,1.8515,1.8535,1.8508,1.8513,1.8671,1.8673,1.8674,1.8665,0,0,0,0,0,0,1.8099,1.8119,1.814,1.8201,1.8222,1.8309,1.8305,1.8315,1.8346,1.8347,1.8407,1.8415,1.8443,1.8507,1.852,1.8542,1.8517,1.8669,1.8672,1.8674,1.8664,1.8667,1.8669,0,0,0,0,0,1.8093,1.8132,1.8141,1.8157,1.8249,1.831,1.8322,1.8353,1.8347,1.8368,1.8403,1.8414,1.8531,1.8513,1.8528,1.8551,1.8668,1.8671,1.8674,1.8663,1.8666,1.8669,0,0,0,0,0,0,1.8071,1.8141,1.8151,1.8211,1.8255,1.8315,1.8342,1.8356,1.8401,1.84,1.8437,1.845,1.8506,1.8535,1.8513,1.8607,1.8599,1.8605,1.8586,1.859,1.8592,1.8583,1.8521,0,0,0,0,0,1.8074,1.8119,1.8177,1.8224,1.8246,1.829,1.8318,1.8339,1.8385,1.8403,1.8442,1.8486,1.8533,1.8563,1.8609,1.8669,1.8682,1.8693,1.8695,1.8697,1.8701,1.8735,1.8741,1.8684,1.8684,1.8684,0,0,1.8079,1.8123,1.8148,1.8221,1.8257,1.8302,1.8305,1.8353,1.8387,1.841,1.8468,1.8499,1.855,1.861,1.8638,1.8635,1.872,1.8701,1.8702,1.8705,1.8739,1.8744,1.8749,1.8686,1.8686,1.8686,0,0,1.8112,1.8149,1.8193,1.823,1.8285,1.8315,1.8325,1.8384,1.8405,1.8464,1.8483,1.8524,1.8604,1.864,1.8669,1.8718,1.8729,1.8732,1.8744,1.8777,1.8781,1.8785,1.8802,1.8808,1.8736,1.8736,1.8736,0,1.8111,1.818,1.8214,1.8261,1.8293,1.8318,1.8363,1.8396,1.8463,1.8484,1.8481,1.8583,1.862,1.8688,1.87,1.8723,1.8736,1.8724,1.8778,1.8782,1.8786,1.8803,1.8809,1.8736,1.8736,1.8736,1.8736,0,1.8176,1.8224,1.8253,1.8318,1.8353,1.8399,1.844,1.8472,1.849,1.852,1.858,1.8625,1.8681,1.8699,1.8717,1.8771,1.8767,1.8771,1.8763,1.8791,1.8807,1.8814,1.8736,1.8736,1.8736,1.8736,0,0,1.8196,1.8281,1.8291,1.8321,1.8385,1.8422,1.847,1.8525,1.8551,1.8597,1.8638,1.8706,1.871,1.8742,1.8765,1.8794,1.8829,1.8793,1.8795,1.8798,1.8891,1.8887,1.8894,1.8838,1.8839,1.884,1.8886,0,1.8236,1.8321,1.8354,1.8424,1.8469,1.8494,1.8535,1.8579,1.8609,1.8651,1.8684,1.8731,1.8733,1.8753,1.8783,1.8818,1.8848,1.8816,1.8875,1.8877,1.886,1.8902,1.8899,1.894,1.8893,1.8894,1.8895,0,1.8293,1.8341,1.8415,1.8474,1.8494,1.853,1.8584,1.8625,1.8675,1.8695,1.8732,1.8753,1.8804,1.8795,1.8865,1.8842,1.8869,1.889,1.8892,1.8898,1.8886,1.8908,1.8954,1.8959,1.8905,1.8904,1.8904,0,1.8299,1.8382,1.8437,1.8462,1.8533,1.8558,1.8588,1.8638,1.8669,1.8717,1.8738,1.879,1.8819,1.8859,1.8894,1.8884,1.8961,1.8955,1.8978,1.8977,1.8992,1.899,1.9041,1.9011,1.9011,1.9011,1.9011,0,1.8339,1.8383,1.8441,1.8475,1.8525,1.8564,1.8613,1.8645,1.8689,1.8729,1.8755,1.8792,1.8836,1.888,1.8907,1.8961,1.8974,1.8991,1.8998,1.8988,1.8986,1.9005,1.9003,1.9012,1.9012,1.9012,1.9011,0,1.8354,1.8394,1.8456,1.8519,1.8536,1.857,1.8623,1.8657,1.8689,1.874,1.8754,1.8804,1.8857,1.8896,1.8963,1.8982,1.9039,1.9047,1.9022,1.9025,1.9047,1.9044,1.911,1.9121,1.9084,1.9085,1.9085,0,1.8376,1.8411,1.8478,1.8507,1.8538,1.8585,1.8618,1.8657,1.869,1.8751,1.8777,1.8832,1.8877,1.896,1.9002,1.9054,1.9062,1.9082,1.907,1.9059,1.9061,1.9059,1.9062,1.9083,1.9083,1.9083,1.9083,0,1.8411,1.843,1.8476,1.8531,1.857,1.8614,1.8659,1.8681,1.8729,1.8765,1.8819,1.8855,1.8924,1.8978,1.9035,1.9066,1.9083,1.9087,1.9095,1.9085,1.9069,1.9078,1.9026,1.9085,1.9085,1.9085,1.9085,1.9085,1.843,1.8462,1.8514,1.8566,1.8604,1.8646,1.8681,1.8718,1.8764,1.8824,1.8845,1.8901,1.8952,1.903,1.9062,1.9106,1.9106,1.9118,1.9121,1.9123,1.9122,1.9064,1.9117,1.9117,1.9117,1.9117,1.9117,0,1.8465,1.8501,1.8548,1.8611,1.8651,1.8665,1.8716,1.8748,1.8798,1.8844,1.8888,1.8951,1.9004,1.9051,1.9105,1.9132,1.9141,1.9145,1.9143,1.915,1.9119,1.9106,1.9137,1.9137,1.9137,1.9137,1.9137,1.9137,1.8488,1.8544,1.8569,1.8645,1.868,1.8735,1.8763,1.8802,1.8839,1.8908,1.8952,1.8983,1.903,1.9088,1.9137,1.915,1.9168,1.917,1.9184,1.9154,1.9152,1.9149,1.9137,1.9174,1.9174,1.9211,1.9212,1.9212]},{"header":{"parameterUnit":"m.s-1","parameterCategory":1,"la1":30.2991,"la2":30.254,"lo1":-89.0895,"lo2":-89.0444,"dy":0.0017,"dx":0.0017,"nx":28,"ny":28,"refTime":"2023-07-30T03:00:00:Z","depth":0,"parameterNumber":3,"parameterNumberName":"V-component_of_WINDS"},"data":[0,0,0,0,0,0,0,0,0,0,0,0,0,0,0,0,0,0,0,0,0,0,0,0,0,0,0,0,0,0,0,0,0,0,0,0,0,0,0,0,0,0,0,0,0,0,0,0,0,0,0,0,0,0,0,0,0,0,2.8197,2.8197,0,2.819,2.819,2.819,2.8143,2.8142,2.8141,2.814,2.8132,2.8133,2.8134,0,0,0,0,0,0,0,0,0,0,0,0,0,2.817,2.817,2.8197,2.8197,2.8197,2.819,2.819,2.819,2.8143,2.8142,2.8141,2.8139,2.8132,2.8133,2.8134,0,0,0,0,0,0,0,0,0,0,0,0,0,2.8174,2.8171,2.8197,2.8173,2.8171,2.819,2.819,2.819,2.8144,2.8142,2.814,2.8139,2.8132,2.8133,2.8134,2.8176,0,0,2.8138,2.8139,0,0,0,0,0,0,0,0,2.8174,2.8175,2.8176,2.8174,2.8172,2.8166,2.8177,2.8185,2.8144,2.8154,2.814,2.8138,2.8145,2.8145,2.8147,2.8176,2.8175,2.8138,2.8139,2.814,2.814,0,0,0,0,0,0,0,2.8173,2.8175,2.8194,2.8176,2.8174,2.8162,2.8161,2.8179,2.8159,2.8153,2.815,2.8149,2.8143,2.8146,2.8147,2.8175,2.8138,2.8139,2.814,2.8141,2.8237,2.8239,0,0,0,0,0,0,2.8177,2.8175,2.8194,2.8194,2.8169,2.8164,2.8163,2.8169,2.8159,2.8155,2.8151,2.8147,2.8145,2.8145,2.8146,2.8194,2.814,2.8141,2.8142,2.8235,2.8238,2.824,0,0,0,0,0,0,2.8176,2.8179,2.8194,2.8183,2.8185,2.8166,2.8174,2.817,2.8173,2.8157,2.8153,2.8157,2.8144,2.8145,2.8169,2.8193,2.8141,2.8143,2.8233,2.8236,2.8239,2.829,0,0,0,0,0,0,2.8176,2.8179,2.8195,2.8184,2.8185,2.8217,2.8176,2.8171,2.8175,2.8171,2.8162,2.8159,2.8142,2.8167,2.817,2.8194,2.8144,2.8231,2.8235,2.8238,2.8286,2.8295,2.8302,0,0,0,0,0,2.8175,2.8209,2.8196,2.8198,2.8205,2.8219,2.8219,2.8199,2.8178,2.8193,2.8183,2.8159,2.819,2.817,2.8173,2.8198,2.8229,2.8234,2.8237,2.8283,2.8293,2.8301,0,0,0,0,0,0,2.8223,2.8208,2.8192,2.8224,2.8223,2.8211,2.823,2.8211,2.8216,2.8211,2.8186,2.8184,2.8212,2.8207,2.8185,2.8237,2.8206,2.8211,2.824,2.8249,2.8256,2.8257,2.8145,0,0,0,0,0,2.8237,2.825,2.8236,2.8266,2.8266,2.8248,2.8254,2.8239,2.8236,2.8236,2.8227,2.8226,2.8235,2.8242,2.8249,2.8286,2.8283,2.8304,2.8312,2.8318,2.8322,2.8341,2.835,2.8253,2.8253,2.8253,0,0,2.8267,2.826,2.827,2.8275,2.8273,2.8287,2.8248,2.8265,2.8274,2.8238,2.826,2.8254,2.8251,2.8282,2.8295,2.8278,2.8349,2.8323,2.8328,2.8329,2.8346,2.8355,2.8364,2.8256,2.8255,2.8255,0,0,2.8328,2.8324,2.8349,2.8347,2.8344,2.8332,2.8338,2.8328,2.8323,2.8345,2.8318,2.833,2.8346,2.8345,2.8347,2.8408,2.8387,2.8412,2.8451,2.8469,2.8477,2.8484,2.8505,2.8513,2.8416,2.8416,2.8416,0,2.8365,2.8385,2.8364,2.8382,2.8385,2.8353,2.8377,2.8377,2.8376,2.8379,2.8361,2.8381,2.8377,2.8407,2.8422,2.8424,2.843,2.8412,2.8478,2.8484,2.849,2.851,2.8519,2.8419,2.8419,2.8418,2.8418,0,2.8431,2.8445,2.8465,2.8466,2.8471,2.8492,2.8474,2.8482,2.8467,2.8457,2.848,2.8474,2.848,2.8486,2.8471,2.8513,2.8503,2.8482,2.845,2.8503,2.8521,2.8529,2.8423,2.8422,2.8421,2.8421,0,0,2.8521,2.851,2.8518,2.8517,2.8512,2.8522,2.8542,2.8548,2.8556,2.8557,2.8572,2.8587,2.8568,2.857,2.8554,2.8571,2.8619,2.8547,2.8546,2.856,2.8666,2.8682,2.8692,2.8606,2.8607,2.8608,2.8666,0,2.8579,2.8613,2.8594,2.863,2.8643,2.8613,2.863,2.8629,2.862,2.863,2.862,2.8631,2.8604,2.8605,2.862,2.861,2.864,2.8606,2.862,2.8621,2.8621,2.8701,2.8718,2.8773,2.8674,2.8675,2.8676,0,2.8651,2.8656,2.8693,2.8685,2.869,2.8706,2.871,2.872,2.8717,2.871,2.8712,2.8693,2.8712,2.8681,2.8706,2.8683,2.8688,2.8684,2.8686,2.8686,2.8651,2.8703,2.8791,2.8799,2.8687,2.8686,2.8685,0,2.8713,2.8728,2.8752,2.8753,2.8745,2.8757,2.8754,2.875,2.8755,2.8758,2.8761,2.8767,2.877,2.8775,2.8758,2.8737,2.8786,2.8753,2.878,2.8781,2.8791,2.8791,2.888,2.8795,2.8795,2.8795,2.8795,0,2.878,2.8803,2.878,2.8795,2.8821,2.88,2.8826,2.882,2.8816,2.8829,2.8804,2.8817,2.8794,2.8804,2.8791,2.8814,2.8816,2.881,2.8807,2.8812,2.8813,2.8815,2.881,2.8797,2.8797,2.8796,2.8796,0,2.8852,2.8838,2.8862,2.8852,2.885,2.887,2.8862,2.8875,2.8865,2.8882,2.8884,2.8869,2.888,2.8863,2.8873,2.8864,2.8896,2.8886,2.8897,2.8894,2.8922,2.8919,2.9015,2.9026,2.8934,2.8935,2.8936,0,2.8896,2.8913,2.8906,2.8913,2.8911,2.8923,2.8928,2.8908,2.8914,2.8913,2.8927,2.8936,2.8942,2.8961,2.8951,2.8958,2.8948,2.8981,2.8949,2.8954,2.8948,2.8947,2.8949,2.8987,2.8989,2.8989,2.899,0,2.8974,2.8966,2.8974,2.898,2.8987,2.8991,2.8993,2.9,2.8979,2.8987,2.8999,2.9003,2.9013,2.9022,2.9027,2.9023,2.9004,2.9001,2.9007,2.9013,2.9018,2.9016,2.8914,2.8998,2.8997,2.8997,2.8996,2.8996,2.9033,2.9047,2.9044,2.9055,2.9054,2.9056,2.9069,2.906,2.9069,2.9076,2.9064,2.9078,2.9076,2.9079,2.9078,2.9089,2.9075,2.9084,2.9087,2.9089,2.9094,2.9017,2.909,2.909,2.909,2.9089,2.9089,0,2.9109,2.9106,2.9116,2.912,2.9128,2.9109,2.911,2.9118,2.9131,2.9131,2.9137,2.915,2.916,2.915,2.9157,2.9168,2.9159,2.917,2.9169,2.9169,2.9106,2.91,2.9178,2.9178,2.9178,2.9178,2.9178,2.9177,2.915,2.9174,2.9165,2.9189,2.9185,2.9199,2.9202,2.9204,2.9203,2.9219,2.9227,2.9221,2.9216,2.9223,2.9231,2.9228,2.9232,2.9246,2.924,2.9182,2.9173,2.9165,2.9159,2.9247,2.9248,2.9302,2.9302,2.9302]}]]